TimeEDT,TemperatureF,Dew PointF,Humidity,Sea Level PressureIn,VisibilityMPH,Wind Direction,Wind SpeedMPH,Gust SpeedMPH,PrecipitationIn,Events,Conditions,WindDirDegrees,DateUTC
12:52 AM,33.1,30.0,89,30.00,10.0,Calm,Calm,-,N/A,,Overcast,0,2013-10-28 04:52:00
1:52 AM,30.9,28.9,92,30.01,10.0,Calm,Calm,-,0.00,,Mostly Cloudy,0,2013-10-28 05:52:00
2:52 AM,28.9,27.0,92,30.01,10.0,Calm,Calm,-,N/A,,Mostly Cloudy,0,2013-10-28 06:52:00
3:52 AM,28.9,27.0,92,30.01,10.0,Calm,Calm,-,N/A,,Mostly Cloudy,0,2013-10-28 07:52:00
4:52 AM,30.0,28.0,92,30.01,10.0,North,3.5,-,N/A,,Overcast,360,2013-10-28 08:52:00
5:52 AM,30.9,28.9,92,30.00,10.0,Calm,Calm,-,N/A,,Overcast,0,2013-10-28 09:52:00
6:52 AM,33.1,30.0,89,30.02,10.0,Calm,Calm,-,N/A,,Overcast,0,2013-10-28 10:52:00
7:52 AM,35.1,30.9,85,30.01,10.0,SW,3.5,-,N/A,,Overcast,230,2013-10-28 11:52:00
8:52 AM,37.9,33.1,83,30.01,10.0,SW,4.6,-,N/A,,Overcast,230,2013-10-28 12:52:00
9:39 AM,39.2,33.8,81,29.98,10.0,Calm,Calm,-,N/A,,Overcast,0,2013-10-28 13:39:00
9:52 AM,39.9,33.1,77,30.01,10.0,Variable,4.6,-,N/A,,Overcast,0,2013-10-28 13:52:00
10:13 AM,41.0,33.8,76,29.96,10.0,SE,5.8,-,N/A,,Overcast,130,2013-10-28 14:13:00
10:52 AM,43.0,32.0,65,30.00,10.0,South,5.8,-,N/A,,Overcast,190,2013-10-28 14:52:00
11:52 AM,45.0,33.1,63,30.02,10.0,West,6.9,-,N/A,,Overcast,280,2013-10-28 15:52:00
12:14 PM,42.8,35.6,76,30.01,9.0,Variable,4.6,-,0.00,Rain,Light Rain,0,2013-10-28 16:14:00
12:52 PM,42.1,36.0,79,30.06,10.0,Variable,6.9,17.3,0.00,,Overcast,0,2013-10-28 16:52:00
1:25 PM,39.2,35.6,87,30.03,1.5,WNW,11.5,21.9,0.05,Rain,Heavy Rain,300,2013-10-28 17:25:00
1:35 PM,39.2,35.6,87,30.04,3.0,WNW,9.2,20.7,0.05,Rain,Light Rain,290,2013-10-28 17:35:00
1:52 PM,43.0,36.0,76,30.09,10.0,WNW,9.2,21.9,0.05,,Scattered Clouds,290,2013-10-28 17:52:00
2:52 PM,43.0,30.0,60,30.13,10.0,NW,9.2,-,0.00,,Overcast,320,2013-10-28 18:52:00
3:52 PM,41.0,27.0,57,30.17,10.0,NW,6.9,-,0.01,,Overcast,320,2013-10-28 19:52:00
4:52 PM,39.9,26.1,58,30.21,10.0,Variable,3.5,-,N/A,,Overcast,0,2013-10-28 20:52:00
5:52 PM,39.0,24.1,55,30.25,10.0,NNW,8.1,-,N/A,,Overcast,330,2013-10-28 21:52:00
6:52 PM,37.0,23.0,57,30.29,10.0,NNW,5.8,-,N/A,,Scattered Clouds,330,2013-10-28 22:52:00
7:52 PM,28.9,23.0,78,30.33,10.0,Calm,Calm,-,N/A,,Partly Cloudy,0,2013-10-28 23:52:00
8:52 PM,27.0,21.9,81,30.35,10.0,Calm,Calm,-,N/A,,Clear,0,2013-10-29 00:52:00
9:52 PM,25.0,21.0,85,30.36,10.0,Calm,Calm,-,N/A,,Clear,0,2013-10-29 01:52:00
10:52 PM,21.9,19.9,92,30.37,10.0,Calm,Calm,-,N/A,,Clear,0,2013-10-29 02:52:00
11:52 PM,21.9,19.0,89,30.37,10.0,Calm,Calm,-,N/A,,Clear,0,2013-10-29 03:52:00